Location: Stonelick Lake State Park
(39.2170°N, 84.0850°W)
Time: 11:05:30
(UTC-04:00)

Daily predictions for brighter satellites

Satellite Brightness Start Highest point End
(mag) Time Altitude Azimuth Time Altitude Azimuth Time Altitude Azimuth
Cosmos 1331 Rocket 4.3 20:44:26 10° SSW 20:49:44 79° WNW 20:55:04 10° NNE
CZ-2D R/B 3.6 20:45:59 10° SSE 20:49:44 48° ENE 20:53:30 10° N
SL-16 R/B 3.0 20:49:01 10° SSE 20:53:48 29° ESE 20:58:36 10° NE
Nadezhda 4 Rocket 4.0 20:48:00 10° N 20:54:18 78° E 21:00:36 10° S
ATLAS 5 CENTAUR R/B 4.1 20:56:52 10° N 21:00:47 18° NE 21:04:53 10° E
Cosmos 1634 Rocket 4.2 20:55:27 10° SSE 21:01:28 51° E 21:07:34 10° NNE
Cosmos 1707 Rocket 3.6 20:59:12 10° S 21:03:35 65° E 21:07:59 10° NNE
Cosmos 1092 Rocket 4.1 20:57:42 10° N 21:04:02 66° E 21:10:20 10° SSE
Helios 1B rocket 3.0 21:01:20 10° NNE 21:05:08 36° E 21:08:54 10° SSE
Lacrosse 4 Rocket 2.8 21:01:50 10° N 21:05:27 26° NE 21:08:46 12° ESE
USA 186 1.6 21:03:25 10° SSE 21:05:59 47° ENE 21:08:45 10° N
ALOS 3.6 21:05:13 10° SSW 21:09:37 41° W 21:14:02 10° NNW
ERBS 3.2 21:06:49 10° NNW 21:10:05 38° NE 21:12:44 14° ESE
Cosmos 1733 Rocket 4.3 21:07:44 10° NNE 21:11:21 24° ENE 21:14:14 13° ESE
SAR-Lupe-4 4.1 21:08:08 10° SE 21:11:29 39° ENE 21:14:51 10° N
Cosmos 1939 Rocket 3.9 21:08:25 11° SE 21:11:44 29° ENE 21:15:12 10° NNE
CENTAUR R/B 4.0 21:06:01 10° WSW 21:11:44 42° NW 21:18:14 10° NNE
Cosmos 1486 Rocket 4.0 21:07:51 10° NNW 21:13:06 78° ENE 21:18:21 10° SSE
SeaSat 1 4.5 21:17:45 10° ENE 21:20:16 14° NE 21:22:47 10° NNE
Resurs 1-3 4.0 21:16:55 10° S 21:21:16 65° WSW 21:25:38 10° NNW
Cosmos 1869 Rocket 3.9 21:18:13 10° NNW 21:22:41 69° W 21:27:07 10° S
Cosmos 2227 4.2 21:17:37 10° NNW 21:23:24 87° ENE 21:29:05 10° SSE
Cosmos 1408 3.0 21:21:27 10° N 21:24:59 41° E 21:27:27 17° SE
Atlas Centaur 2 3.7 21:20:42 10° SW 21:26:38 29° SSE 21:31:32 16° ESE
SAR-Lupe-1 4.2 21:26:08 15° SSE 21:28:57 56° ENE 21:32:29 10° N
Abrixas rocket 4.0 21:28:24 10° W 21:31:23 31° NNW 21:34:22 10° NE
Cosmos 2242 Rocket 3.5 21:30:39 10° S 21:35:09 69° E 21:39:37 10° NNE
Cosmos 1455 3.9 21:33:05 10° SW 21:36:36 35° WNW 21:40:06 10° N
Cosmos 1627 Rocket 4.4 21:31:59 10° N 21:38:14 80° E 21:44:22 10° S
Helios 1A 3.1 21:36:38 10° S 21:40:51 79° WSW 21:45:07 10° NNW
Cosmos 2195 Rocket 4.4 21:35:39 10° N 21:41:47 87° E 21:47:56 10° S
Cosmos 2279 Rocket 4.0 21:36:34 10° S 21:42:41 63° E 21:48:51 10° NNE
Cosmos 1503 Rocket 3.9 21:39:12 10° NNW 21:44:29 76° ENE 21:48:09 20° SSE
CZ-3B DEB 3.6 21:47:21 10° W 21:47:55 10° WSW 21:48:25 10° WSW
Cosmos 1354 Rocket 3.9 21:43:09 10° NNW 21:48:28 84° ENE 21:52:09 20° SSE
Cosmos 1869 4.2 21:45:43 10° SSW 21:49:31 49° W 21:53:22 10° N
Resurs 01 Rocket 3.8 21:48:51 10° SSW 21:52:31 25° W 21:56:14 10° NW
H-2A R/B 3.7 21:52:49 15° ENE 21:53:43 16° ENE 21:56:37 10° NNE
OAO 3 Rocket 3.4 21:49:51 10° WSW 21:54:38 53° S 21:56:39 32° ESE
SJ-11-01 4.3 21:51:19 17° S 21:54:58 84° WSW 21:59:40 10° NNW
CZ-4B DEB 3.1 21:54:21 25° S 21:55:55 57° W 21:58:54 10° NNW
YAOGAN 6 2.7 21:56:56 41° SE 21:57:55 57° ENE 22:01:30 10° N
Cosmos 1428 Rocket 4.4 21:54:35 10° N 22:00:43 74° E 22:04:53 21° SSE
Meteor 1-29 3.9 21:58:15 10° N 22:01:38 49° WNW 22:04:58 10° SSW
FALCON 9 R/B 2.1 21:59:44 10° WSW 22:00:46 19° SW 22:00:46 19° SW
Cosmos 2180 Rocket 4.5 21:58:29 10° S 22:04:51 79° E 22:11:13 10° N
SPOT 5 3.7 22:04:10 30° E 22:05:09 33° ENE 22:09:21 10° N
Cosmos 968 Rocket 4.3 22:00:45 10° N 22:05:31 35° ENE 22:06:50 31° E
Cosmos 2263 Rocket 2.2 22:00:31 10° NNW 22:06:03 65° ENE 22:08:25 34° SE
COSMOS 2428 4.3 22:10:12 18° ENE 22:10:12 18° ENE 22:12:22 10° NE
Meteor 2-10 Rocket 3.8 22:05:37 22° SSE 22:09:19 59° E 22:15:01 10° NNE
Cosmos 2322 Rocket 2.7 22:04:18 10° SW 22:09:50 62° WNW 22:15:25 10° NNE
Envisat 3.7 22:05:47 12° S 22:10:19 53° W 22:15:18 10° NNW
Cosmos 1933 3.4 22:11:30 21° SSW 22:14:05 76° W 22:18:07 10° N
Sich 1 Rocket 3.8 22:11:37 10° N 22:15:59 51° E 22:16:31 48° ESE
Cosmos 2360 Rocket 2.1 22:15:49 17° S 22:20:10 62° ESE 22:25:46 10° NNE
H-2A R/B 4.1 22:23:59 15° NE 22:23:59 15° NE 22:25:55 10° NNE
Cosmos 1825 3.9 22:21:37 10° NNW 22:24:57 30° W 22:27:16 16° SW
USA 234 3.4 22:22:52 32° SSE 22:26:01 64° SW 22:32:33 10° NW
Cosmos 2322 3.7 22:25:28 32° S 22:28:02 62° ESE 22:33:41 10° NNE
Cosmos 1908 Rocket 3.4 22:24:14 10° N 22:28:34 71° E 22:28:49 69° ESE
NOAA 11 4.1 22:28:03 45° SSE 22:29:47 77° ENE 22:35:17 10° N
SEDSat Delta rocket 4.2 22:25:25 10° WSW 22:30:34 39° S 22:30:34 39° S
USA 245 4.3 22:30:43 47° SE 22:32:12 62° ENE 22:37:24 10° N
SL-16 R/B 3.6 22:32:29 10° SW 22:37:43 38° WNW 22:43:00 10° N
SPOT 1/Viking Rocket 3.7 22:40:22 52° E 22:40:41 53° ENE 22:45:46 10° N
Cosmos 1782 Rocket 3.9 22:38:18 10° N 22:41:59 52° NE 22:41:59 52° NE
MetOp-B 4.1 22:42:09 53° S 22:43:28 83° WSW 22:48:51 10° NNW
ERS-1 Rocket 3.5 22:42:09 35° SSW 22:43:59 52° W 22:48:54 10° NNW
Lacrosse 4 Rocket 2.9 22:40:21 10° NW 22:44:08 30° WSW 22:45:08 27° SW
Okean 2 Rocket 3.9 22:41:32 10° N 22:44:59 39° NE 22:44:59 39° NE
ATLAS 5 CENTAUR R/B 2.4 22:40:18 10° NNW 22:46:22 77° NE 22:47:45 57° SE
Cosmos 2333 Rocket 4.4 22:52:12 12° ENE 22:52:12 12° ENE 22:52:49 10° NE
Milstar 3 3.8 22:47:31 10° WSW 22:53:09 27° SSW 22:53:09 27° SSW
ARGOS 3.0 22:52:58 69° S 22:53:40 87° WSW 22:59:04 10° NNW
SeaSat 1 2.3 22:57:02 86° S 22:57:08 88° WSW 23:02:06 10° NNW
Cosmos 2278 Rocket 4.0 22:56:00 10° N 22:59:47 18° NE 23:00:07 18° NE
Okean 1-7 3.7 23:07:56 52° NNW 23:07:56 52° NNW 23:11:23 10° N
Cosmos 1777 Rocket 4.2 23:01:55 10° NNW 23:06:40 59° NE 23:06:40 59° NE
Terra 2.9 23:10:04 36° NE 23:10:04 36° NE 23:13:22 10° N
SL-08 RB Rocket 4.0 23:09:48 63° NW 23:09:48 63° NW 23:13:50 10° NNW
Cosmos 1844 Rocket 3.2 23:04:04 10° N 23:09:04 46° NE 23:09:04 46° NE
USA 229 DEB 3.7 23:04:18 10° SW 23:11:08 82° NW 23:18:06 10° NNE
USA 229 3.7 23:04:24 10° SW 23:11:14 82° WNW 23:18:12 10° NNE
Atlas Centaur 2 3.5 23:08:22 10° WSW 23:14:12 41° SSW 23:14:12 41° SSW
Cosmos 2266 Rocket 4.5 23:10:25 10° NNW 23:16:31 56° W 23:18:12 43° SW
MOS 1-B Rocket 4.3 23:22:53 51° SW 23:23:42 55° WSW 23:29:18 10° NNW
Cosmos 2219 Rocket 3.5 23:28:37 29° NE 23:28:37 29° NE 23:31:25 10° NNE
Meteor 1-10 Rocket 4.3 23:29:38 75° N 23:29:38 75° N 23:35:01 10° N
CZ-4C R/B 3.9 23:24:13 10° NNW 23:30:33 33° NE 23:32:09 31° ENE
H-2A R/B 2.6 23:33:27 53° WNW 23:33:27 53° WNW 23:37:34 10° NNW
Cosmos 1867 4.3 23:28:12 10° NW 23:32:45 47° W 23:32:45 47° W
Cosmos 1244 Rocket 4.5 23:31:56 10° N 23:37:58 80° WNW 23:37:58 80° WNW
ASTEX 1 4.4 23:43:30 45° N 23:43:30 45° N 23:46:55 10° N
Cosmos 1553 Rocket 4.2 23:48:00 64° NNE 23:48:00 64° NNE 23:53:15 10° N
Cosmos 2263 Rocket 4.3 23:46:10 10° WNW 23:49:21 16° W 23:50:09 15° WSW
H-2A R/B 4.1 23:08:02 10° W 23:51:25 45° SSW 23:51:33 45° SSW
COSMOS 2428 3.3 23:52:07 52° WNW 23:52:07 52° WNW 23:57:38 10° NNE
